Warning: Javascript must be enabled to use all the features on this page!


Page Loading - Please Wait...

Click to hideNews Bulletins

Peak Streamflow for the Nation

USGS 01358000 HUDSON RIVER AT GREEN ISLAND NY

Albany County, New York
Hydrologic Unit Code 02020003
Latitude  42°45'08", Longitude  73°41'20" NAD83
Drainage area 8,090  square miles
Gage datum -0.92 feet above NAVD88
Output formats
Table
Graph
Tab-separated file
peakfq (watstore) format
Reselect output format
Water
Year
Date Gage
Height
(feet)
Stream-
flow
(cfs)
1936 1936-03-19 29.48 215,0006,7
1946 1946-03-10 22.13 93,5006
1947 1947-05-06 21.64 83,9006
1948 1948-03-23 22.97 109,0006
1949 1948-12-31 27.05 181,0006
1950 1950-03-29 22.19 93,9006
1951 1951-04-01 23.05 111,0006
1952 1952-04-06 22.78 108,0006
1953 1953-03-28 22.75 107,0006
1954 1954-04-18 21.24 75,4006
1955 1955-03-12 20.83 66,5006
1956 1955-10-17 23.13 113,0006
1957 1957-01-24 19.62 43,4006
1958 1958-04-23 21.01 70,6006
1959 1959-01-22 22.21 92,4006
1960 1960-04-05 24.41 135,0006
1961 1961-02-27 22.37 92,5006
1962 1962-04-01 22.47 94,5006
1963 1963-03-28 22.02 85,4006
1964 1964-03-06 24.82 141,0006
1965 1965-04-13 19.46 37,4006
1966 1966-03-25 20.25 50,7006
1967 1967-04-04 20.59 56,9006
1968 1968-03-24 22.12 91,2006
1969 1969-04-23 21.86 82,2006
1970 1970-04-03 22.33 91,7006
1971 1971-05-05 20.88 62,5006
1972 1972-05-05 22.48 99,3006
1973 1973-04-05 21.94 88,1006
1974 1973-12-27 22.39 98,4006
1975 1975-02-25 21.93 86,0006
1976 1976-04-02 22.82 106,0006
1977 1977-03-14 26.53 175,0006
1978 1977-10-18 22.72 104,0006
1979 1979-03-07 23.64 121,0006
1980 1980-03-22 23.62 123,0006
1981 1981-02-22 22.05 91,1006
1982 1982-04-19 21.58 82,1006
1983 1983-04-26 22.83 106,0006
1984 1984-05-30 22.98 109,0006
1985 1985-03-13 21.41 79,5006
1986 1986-03-16 23.41 117,0006
1987 1987-04-05 23.79 122,0006
1988 1988-03-27 20.552 59,4006
1989 1989-05-07 20.782 66,9006
1990 1990-05-22 21.64 82,1006
1991 1990-11-11 21.96 88,9006
1992 1992-05-03 20.91 68,9006
1993 1993-03-30 23.57 120,0006
1994 1994-04-17 22.39 98,8006
1995 1995-01-17   40,0002,6
1996 1996-01-20 26.22 165,0006
1997 1996-12-02 23.31 114,0002,6
1998 1998-01-09 24.77 140,0002,6
1999 1999-01-25 20.95 70,0002,6
2000 2000-02-29 23.30 116,0002,6
2001 2000-12-18 22.82 102,0002,6
2002 2002-04-16   59,7006
2003 2003-03-23 22.08 91,6002,6
2004 2003-10-30   78,0002,6
2005 2005-04-04 24.22 131,0002,6
2006 2006-06-29 23.67 123,0002,6
2007 2007-04-17 23.13 113,0002,6
2008 2008-03-09 22.73 105,0002,6
2009 2009-03-10 21.262 77,1006
2010 2010-03-23 22.542 101,0006
2011 2011-08-29 27.05 181,0006,9
2012 2012-05-09 20.63 62,3006
2013 2013-06-14 22.74 107,0006
2014 2014-04-16 21.95 88,7006
2015 2014-12-25 20.30 60,6006
2016 2016-02-25 21.02 74,2006
2017 2017-04-07 22.05 94,1006
2018 2018-01-13 19.962 70,9006
2019 2019-04-16 21.512 86,1006
2020 2019-11-01 22.532 108,0006
2021 2020-12-26 22.81 98,6006
?
  Peak Gage-Height Qualification Codes.
?
  Peak Streamflow Qualification Codes.